+ View the NASA Portal
+ Center for Near-Earth Object Studies
IMPORTANT:
The SSD Announcement email list is now available. Major changes are coming in the near future, including possible hostname and/or URL changes. To be notified of such changes, subscribe to this email list.
Please visit
this page
for more details.
Don't show this message again
JPL Small-Body Database Browser
Search:
[
help
]
392406 (2010 LQ67)
Classification:
Main-belt Asteroid
SPK-ID:
2392406
[
Ephemeris
|
Orbit Diagram
|
Orbital Elements
|
Mission Design
|
Physical Parameters
|
Discovery Circumstances
|
Close-Approach Data
]
[ show orbit diagram ]
Orbital Elements at Epoch 2458600.5 (2019-Apr-27.0) TDB
Reference:
JPL 16
(heliocentric ecliptic J2000)
Element
Value
Uncertainty (1-sigma)
Units
e
.1712872941376004
6.6101e-08
a
2.585252476403063
2.9173e-08
au
q
2.142431575057452
1.6528e-07
au
i
5.023115160847134
5.039e-06
deg
node
101.2533840377279
8.5395e-05
deg
peri
123.0078323708383
8.7285e-05
deg
M
63.90998889651073
2.0015e-05
deg
t
p
2458330.962551818938
(2018-Jul-31.46255182)
8.3008e-05
TDB
period
1518.283495594221
4.16
2.5699e-05
7.036e-08
d
yr
n
.2371098685091774
4.0134e-09
deg/d
Q
3.028073377748675
3.4169e-08
au
Orbit Determination Parameters
# obs. used (total)
212
data-arc span
5400 days (14.78 yr)
first obs. used
2004-12-16
last obs. used
2019-09-29
planetary ephem.
DE431
SB-pert. ephem.
SB431-N16
condition code
0
norm. resid. RMS
.61862
source
ORB
producer
Otto Matic
solution date
2019-Nov-08 13:05:01
Additional Information
Earth MOID
= 1.13823 au
Jupiter MOID
= 1.96527 au
T_jup
= 3.396
[ show covariance matrix ]
[
Ephemeris
|
Orbit Diagram
|
Orbital Elements
|
Mission Design
|
Physical Parameters
|
Discovery Circumstances
|
Close-Approach Data
]
Physical Parameter Table
Parameter
Symbol
Value
Units
Sigma
Reference
Notes
absolute magnitude
H
16.5
n/a
MPO437606
392406 (2010 LQ67)
Discovered 2010-Jun-06 by OAM at La Sagra
Reference:
Last Updated:
2014-04-17
[ hide close-approach data ]
Close-Approach Data
...sorted by
Date/Time (TDB)
Date/Time (TDB)
Time Uncertainty
(days_HH:MM)
Body
Nominal Distance (au)
Minimum Distance (au)
Maximum Distance (au)
V-relative (km/s)
V-infinity (km/s)
JD (TDB)
Time Uncertainty (minutes)
Semi-major axis (km)
Semi-minor axis (km)
range-LOV angle (deg)
N-sigma
BP
Orbit Ref.
Reference
Modified
1929-Feb-22 00:42
00:04
Jupiter
1.96955392115542
1.96955280486437
1.96955503744668
2.04055478148549
1.81762144551082
2425664.529361633
4.07422613922195
155.694060845877
28.284910598011
-85.1796435224654
1162157.70713327
T
16
CATAB v2.0f-lin.ifort 2019-Nov-08 13:05:13
2019-Nov-08 13:05
1999-Jul-24 13:00
< 00:01
Jupiter
1.97725072665929
1.97725006846064
1.97725138485771
2.07552214903882
1.85769326082515
2451384.041920258
0.859132138724136
107.920247368409
20.5501351944666
85.8554717523609
1468916.42298839
T
16
CATAB v2.0f-lin.ifort 2019-Nov-08 13:05:13
2019-Nov-08 13:05
2082-Dec-05 08:36
00:03
Jupiter
1.95715425791099
1.95715352666234
1.95715498916466
1.99033708325755
1.75951024236262
2481833.858572237
3.08407705064109
252.302492760088
30.6298221478056
87.7047894556693
1549426.30686433
T
16
CATAB v2.0f-lin.ifort 2019-Nov-08 13:05:13
2019-Nov-08 13:05
2166-Apr-17 14:51
00:07
Jupiter
1.96078331595804
1.9607827193321
1.96078391258632
2.01554640007852
1.78842497329537
2512282.118434620
6.95187987497593
351.977300434665
30.3487060914763
-88.7219863960021
1538844.5149336
T
16
CATAB v2.0f-lin.ifort 2019-Nov-08 13:05:13
2019-Nov-08 13:05
[
Ephemeris
|
Orbit Diagram
|
Orbital Elements
|
Mission Design
|
Physical Parameters
|
Discovery Circumstances
|
Close-Approach Data
]
2019-Dec-06 23:18 UT
(server date/time)
Site Manager:
Ryan S. Park
Webmaster
:
Alan B. Chamberlin